TimePST,TemperatureF,Dew PointF,Humidity,Sea Level PressureIn,VisibilityMPH,Wind Direction,Wind SpeedMPH,Gust SpeedMPH,PrecipitationIn,Events,Conditions,WindDirDegrees,DateUTC
12:06 AM,33.8,32.0,93,30.04,0.8,NNE,3.5,-,N/A,,Mist,20,2012-12-15 08:06:00
12:11 AM,33.8,33.8,100,30.04,1.2,North,3.5,-,N/A,,Partly Cloudy,10,2012-12-15 08:11:00
12:14 AM,35.6,33.8,93,30.03,3.0,North,3.5,-,N/A,,Partly Cloudy,360,2012-12-15 08:14:00
12:34 AM,33.8,32.0,93,30.03,1.8,NW,5.8,-,N/A,,Clear,310,2012-12-15 08:34:00
12:46 AM,33.8,30.2,87,30.03,3.0,NW,5.8,-,N/A,,Clear,310,2012-12-15 08:46:00
12:53 AM,33.1,30.9,92,30.02,6.0,WNW,5.8,-,N/A,,Clear,290,2012-12-15 08:53:00
1:53 AM,33.1,30.9,92,30.03,5.0,WNW,3.5,-,N/A,,Clear,300,2012-12-15 09:53:00
2:12 AM,32.0,32.0,100,30.04,2.5,Calm,Calm,-,N/A,,Partly Cloudy,0,2012-12-15 10:12:00
2:16 AM,32.0,30.2,93,30.03,1.0,Calm,Calm,-,N/A,,Mist,0,2012-12-15 10:16:00
2:23 AM,30.2,28.4,93,30.03,0.5,Calm,Calm,-,N/A,Fog,Light Freezing Fog,0,2012-12-15 10:23:00
2:53 AM,30.9,30.9,100,30.03,0.2,Calm,Calm,-,N/A,Fog,Light Freezing Fog,0,2012-12-15 10:53:00
3:19 AM,30.2,28.4,93,30.05,0.5,Calm,Calm,-,N/A,Fog,Light Freezing Fog,0,2012-12-15 11:19:00
3:53 AM,32.0,30.9,96,30.02,0.5,Calm,Calm,-,N/A,Fog,Fog,0,2012-12-15 11:53:00
4:19 AM,30.2,30.2,100,30.04,0.2,Calm,Calm,-,N/A,Fog,Light Freezing Fog,0,2012-12-15 12:19:00
4:51 AM,32.0,30.2,93,30.03,0.5,Calm,Calm,-,N/A,Fog,Fog,0,2012-12-15 12:51:00
4:53 AM,32.0,30.0,92,30.02,0.5,Calm,Calm,-,N/A,Fog,Fog,0,2012-12-15 12:53:00
5:21 AM,32.0,30.2,93,30.01,1.2,Calm,Calm,-,N/A,,Overcast,0,2012-12-15 13:21:00
5:53 AM,30.9,30.0,96,30.01,1.2,Calm,Calm,-,N/A,,Scattered Clouds,0,2012-12-15 13:53:00
6:01 AM,32.0,30.2,93,30.02,1.2,Calm,Calm,-,N/A,,Mostly Cloudy,0,2012-12-15 14:01:00
6:13 AM,32.0,30.2,93,30.02,1.2,Calm,Calm,-,N/A,,Scattered Clouds,0,2012-12-15 14:13:00
6:28 AM,30.2,30.2,100,30.03,3.0,Calm,Calm,-,N/A,,Partly Cloudy,0,2012-12-15 14:28:00
6:53 AM,32.0,30.0,92,30.02,10.0,Calm,Calm,-,N/A,Fog,Patches of Fog,0,2012-12-15 14:53:00
7:53 AM,32.0,30.9,96,30.04,10.0,Calm,Calm,-,N/A,Fog,Patches of Fog,0,2012-12-15 15:53:00
8:53 AM,35.1,34.0,96,30.06,6.0,Calm,Calm,-,N/A,Fog,Patches of Fog,0,2012-12-15 16:53:00
9:08 AM,35.6,35.6,100,30.07,6.0,Calm,Calm,-,N/A,Fog,Patches of Fog,0,2012-12-15 17:08:00
9:53 AM,37.0,36.0,96,30.06,7.0,Calm,Calm,-,N/A,Fog,Patches of Fog,0,2012-12-15 17:53:00
10:53 AM,39.9,37.9,93,30.05,7.0,Calm,Calm,-,N/A,Fog,Patches of Fog,0,2012-12-15 18:53:00
11:53 AM,41.0,39.0,93,30.04,7.0,West,4.6,-,N/A,Fog,Patches of Fog,270,2012-12-15 19:53:00
12:40 PM,42.8,39.2,87,30.02,6.0,East,3.5,-,0.02,Fog-Rain,Light Rain,80,2012-12-15 20:40:00
12:53 PM,42.1,39.9,92,30.00,6.0,East,4.6,-,0.02,Fog-Rain,Light Rain,80,2012-12-15 20:53:00
1:53 PM,43.0,39.9,89,29.97,5.0,Calm,Calm,-,0.01,Rain,Light Rain,0,2012-12-15 21:53:00
2:00 PM,44.6,41.0,87,29.99,4.0,Calm,Calm,-,0.00,Rain,Light Rain,0,2012-12-15 22:00:00
2:07 PM,44.6,41.0,87,29.99,5.0,Calm,Calm,-,0.00,Rain,Light Rain,0,2012-12-15 22:07:00
2:53 PM,44.1,42.1,93,29.97,5.0,Calm,Calm,-,0.03,Rain,Light Rain,0,2012-12-15 22:53:00
3:53 PM,45.0,42.1,90,29.98,5.0,ESE,8.1,-,0.04,Rain,Light Rain,120,2012-12-15 23:53:00
4:53 PM,45.0,41.0,86,29.98,5.0,East,8.1,-,0.01,Rain,Light Rain,100,2012-12-16 00:53:00
5:20 PM,44.6,41.0,87,29.99,4.0,ESE,9.2,-,0.00,Rain,Light Rain,120,2012-12-16 01:20:00
5:22 PM,44.6,41.0,87,30.00,4.0,ESE,9.2,-,0.00,Rain,Light Rain,110,2012-12-16 01:22:00
5:24 PM,44.6,41.0,87,30.00,4.0,East,8.1,-,0.00,Rain,Light Rain,100,2012-12-16 01:24:00
5:53 PM,44.1,41.0,89,29.99,5.0,ESE,8.1,-,0.00,,Overcast,110,2012-12-16 01:53:00
6:53 PM,45.0,39.9,82,29.98,7.0,ESE,9.2,-,N/A,,Overcast,120,2012-12-16 02:53:00
7:53 PM,45.0,39.9,82,29.99,8.0,East,6.9,-,N/A,,Overcast,100,2012-12-16 03:53:00
8:00 PM,44.6,39.2,81,30.01,8.0,East,8.1,-,N/A,,Overcast,100,2012-12-16 04:00:00
8:53 PM,45.0,41.0,86,30.01,7.0,North,3.5,-,N/A,,Overcast,10,2012-12-16 04:53:00
9:53 PM,44.1,42.1,93,30.02,4.0,NNE,3.5,-,0.01,,Overcast,20,2012-12-16 05:53:00
10:53 PM,44.1,42.1,93,30.04,7.0,North,3.5,-,N/A,,Overcast,10,2012-12-16 06:53:00
11:31 PM,42.8,41.0,93,30.05,6.0,NNW,3.5,-,N/A,,Overcast,340,2012-12-16 07:31:00
11:53 PM,43.0,41.0,93,30.04,6.0,NNW,4.6,-,N/A,,Overcast,330,2012-12-16 07:53:00